Flag for Germany Weather past 2 weeks in Bielefeld, North Rhine-Westphalia, Germany

Now
42 °F

Sunny.


Feels Like: 40 °F
Forecast: 36 / 46 °F
Wind: 3 mph from South

Location: Bad Lippspringe

Current Time: Feb 28, 2015 at 7:05:26 PM

Latest Report: Feb 28, 2015 at 6:00 PM


Visibility: 44 mi

Pressure: 29.98 "Hg

Humidity: 55%

Dew point: 26 °F

Location of BielefeldLocation

Historic Weather in Bielefeld — Graph

°F

Bielefeld temperature yesterday

Maximum temperature yesterday: 43 °F (at 12:00 AM)
Minimum temperature yesterday: 32 °F (at 10:00 PM)
Average temperature yesterday: 39 °F

Past Weeks' High & Low Weather Summary

 TemperatureHumidityPressure
High49 °F (Feb 14, 2:00 PM)100% (Feb 17, 6:00 PM)30.78 "Hg (Feb 17, 6:00 PM)
Low26 °F (Feb 19, 5:00 AM)44% (Feb 28, 3:00 PM)29.32 "Hg (Feb 21, 7:00 AM)
Average38 °F81%29.99 "Hg
* Reported Feb 13 6:00 PM — Feb 28 6:00 PM, Bielefeld, Weather by CustomWeather, © 2015

Note: Actual official high and low records may vary slightly from our data, if they occured in-between our weather recording intervals... More about our weather records

Advertising

Bielefeld weather history for previous 24 hours

 ConditionsComfort  
Time TempWeatherWind HumidityBarometerVisibility
6:00 PM
Sat, Feb 28
42 °FSunny.3 mph55%29.98 "Hg43 mi
5:00 PM44 °FSunny.6 mph53%30.01 "Hg40 mi
4:00 PM45 °FPassing clouds.5 mph51%30.03 "Hg25 mi
3:00 PM45 °FSunny.6 mph44%30.05 "Hg28 mi
2:00 PM44 °FPartly sunny.3 mph53%30.07 "Hg31 mi
1:00 PM43 °FOvercast.5 mph52%30.10 "Hg28 mi
12:00 PM41 °FSunny.5 mph61%30.12 "Hg19 mi
11:00 AM39 °FSunny.3 mph67%30.14 "Hg14 mi
10:00 AM37 °FPassing clouds.3 mph82%30.16 "Hg11 mi
9:00 AM34 °FPartly sunny.2 mph87%30.16 "Hg9 mi
8:00 AM32 °FLow clouds.2 mph92%30.16 "Hg6 mi
7:00 AM31 °FOvercast.2 mph94%30.16 "Hg6 mi
6:00 AM32 °FOvercast.2 mph95%30.15 "Hg16 mi
5:00 AM32 °FOvercast.1 mph96%30.16 "Hg11 mi
4:00 AM30 °FPassing clouds.2 mph98%30.16 "Hg11 mi
3:00 AM30 °FClear.1 mph99%30.16 "Hg22 mi
2:00 AM31 °FPassing clouds.1 mph98%30.15 "Hg15 mi
1:00 AM33 °FOvercast.1 mph96%30.15 "Hg11 mi
12:00 AM34 °FOvercast.1 mph96%30.15 "Hg22 mi
11:00 PM
Fri, Feb 27
33 °FOvercast.1 mph98%30.15 "Hg19 mi
10:00 PM32 °FPassing clouds.1 mph97%30.13 "Hg16 mi
9:00 PM34 °FPassing clouds.No wind97%30.11 "HgN/A
8:00 PM37 °FOvercast.1 mph97%30.08 "Hg14 mi
7:00 PM38 °FPassing clouds.1 mph94%30.06 "Hg14 mi
Weather by CustomWeather, © 2015

See weather overviewHow to use our weather pages